Wind_Speed
22 20 18 17 16 14 12 12 12 12 12 13 13 13 13 13 14 14 14 13 13 13 13 14 14 14 15 15 15 15 15 15 15 14 14 13 12 12 11 11 11 12 12 13 13 14 14 14 14 14 14 13 13 12 12 13 13 13 14 14 15 16 16 16 17 17 17 18 18
21 19 17 16 14 13 12 11 11 12 12 13 13 13 13 13 13 13 13 13 13 13 13 14 14 14 14 14 14 15 15 15 15 15 14 13 12 12 12 12 12 12 13 13 14 14 14 14 14 14 13 13 12 12 12 13 14 14 15 15 16 17 17 17 18 18 18 18 18
19 18 16 15 14 12 11 11 11 12 12 13 13 12 12 13 13 12 12 12 12 12 13 13 13 13 13 14 14 15 15 16 16 15 14 13 13 12 12 12 13 13 14 14 15 15 15 15 14 13 13 12 12 12 12 13 14 15 15 16 16 17 17 17 18 18 18 19 19
18 16 15 14 13 12 11 11 11 11 12 12 12 12 12 12 12 12 12 11 11 11 11 12 12 12 13 14 15 15 16 16 16 15 14 14 13 13 13 12 13 13 14 15 15 15 15 14 13 13 12 12 12 12 12 13 14 14 15 15 16 16 17 17 18 18 18 19 20
17 16 14 13 12 11 11 11 11 11 12 12 12 13 12 12 11 11 11 10 10 10 10 11 11 12 13 14 15 16 16 16 16 15 15 14 14 13 13 13 13 13 14 15 15 15 14 13 12 12 12 12 12 11 12 12 13 13 14 15 15 16 16 17 18 18 19 20 21
17 16 14 13 12 11 11 11 11 11 12 12 12 13 12 11 11 10 9 9 9 9 9 9 10 11 12 13 14 15 15 15 15 15 15 14 14 14 14 13 13 14 14 15 14 13 12 12 12 12 12 12 11 11 11 12 12 13 14 14 15 16 17 18 19 20 21 22 22
16 15 14 13 12 11 11 11 11 11 12 12 12 12 12 10 9 9 8 8 8 8 9 9 9 10 11 12 13 13 14 14 14 15 15 14 14 14 14 14 14 15 15 15 14 13 11 11 12 12 11 11 11 11 12 13 13 14 15 16 16 17 18 20 21 22 22 23 23
16 15 15 14 13 12 11 11 11 11 12 12 12 11 10 9 8 8 8 8 8 8 9 9 10 10 11 11 11 12 12 13 14 14 14 14 14 14 14 15 15 16 16 16 14 12 11 11 12 12 12 12 13 13 14 15 16 16 17 18 18 19 20 21 22 22 22 23 24
16 16 15 14 13 12 11 11 11 11 11 11 11 10 9 8 8 8 8 8 8 8 9 10 11 11 11 11 11 12 12 13 13 14 14 14 14 14 15 15 16 16 16 15 13 12 11 12 13 13 14 14 15 15 16 17 17 18 19 20 20 21 21 22 22 22 22 23 24
17 16 15 14 13 12 11 11 11 11 11 11 10 9 8 8 8 8 8 8 8 9 10 10 11 11 11 12 12 12 13 13 14 14 14 14 14 15 15 16 17 17 17 15 13 12 12 13 13 14 15 16 16 16 17 18 18 19 20 20 21 21 21 21 21 21 22 23 25
17 16 15 13 12 12 11 11 11 11 10 10 9 8 8 8 9 9 9 9 9 10 10 11 11 11 12 12 13 13 14 14 14 14 14 15 15 15 16 17 18 18 17 15 13 12 12 13 14 14 15 16 17 17 17 18 19 19 20 21 21 21 21 21 21 22 23 25 27
17 16 14 13 12 12 11 11 11 11 10 9 9 8 8 9 9 9 9 10 10 10 11 11 11 12 12 13 14 14 14 14 14 14 14 14 15 16 17 18 18 18 16 14 12 12 12 13 13 14 15 16 17 17 18 18 19 19 20 21 21 21 21 22 22 23 24 26 29
17 16 14 13 13 12 12 11 11 11 10 9 8 8 8 9 9 9 10 10 10 11 11 11 12 12 13 14 14 14 14 13 13 13 13 14 15 16 17 17 17 16 15 13 12 12 12 13 14 15 15 16 17 17 18 19 19 20 20 21 21 22 22 23 23 24 26 28 30
18 16 15 14 14 13 12 12 11 10 9 9 9 8 8 9 9 9 10 10 11 11 12 12 13 13 14 15 15 15 14 13 13 13 13 13 14 15 15 15 15 14 14 13 13 13 14 14 15 15 16 16 17 17 18 19 19 20 20 21 22 22 23 23 24 25 27 29 32
18 17 16 15 14 13 12 12 11 10 10 9 9 9 9 9 9 9 10 11 11 12 12 13 13 14 15 15 15 15 14 14 13 13 13 13 13 14 14 13 13 13 13 13 14 15 15 15 16 16 16 16 17 17 18 19 20 20 21 22 22 23 23 24 25 26 28 31 32
19 18 16 15 14 13 12 12 11 11 10 10 10 10 10 10 10 10 11 11 12 12 12 13 14 14 15 16 16 15 15 14 14 14 14 14 14 14 13 13 12 12 12 13 14 15 16 16 16 17 17 17 17 18 19 19 20 21 21 22 22 23 23 24 25 27 30 32 32
20 18 17 16 15 13 13 12 12 12 11 11 11 11 11 11 10 11 11 11 12 12 13 13 14 14 15 15 16 16 16 16 15 15 15 15 15 14 14 14 13 13 13 13 13 14 15 16 16 17 17 18 18 19 19 20 21 21 22 22 22 23 24 25 27 29 30 32 32
20 19 18 17 15 14 14 13 13 13 13 13 13 13 12 12 11 11 11 11 11 12 13 13 14 14 15 15 16 16 16 16 16 16 16 16 16 15 15 14 14 13 13 13 13 13 14 15 16 17 17 18 19 19 20 20 21 21 22 22 23 23 24 26 28 30 31 31 31
21 19 18 17 16 15 15 14 14 14 14 14 14 14 13 12 11 11 11 11 12 12 13 13 14 14 15 16 16 16 17 17 17 17 17 17 17 16 15 14 14 14 13 13 13 13 14 15 16 17 17 18 19 19 20 20 21 22 22 22 23 24 26 27 29 30 30 30 30
21 20 18 17 16 16 15 15 15 15 15 15 15 15 14 13 12 11 11 11 12 12 12 13 14 14 15 16 16 17 18 18 18 18 18 18 18 17 16 15 14 14 14 14 14 14 15 15 16 17 17 18 19 19 20 21 21 22 22 23 24 25 27 28 29 30 30 29 29
22 20 19 18 17 16 16 16 15 15 15 15 16 15 14 13 12 12 11 11 12 12 12 13 14 15 15 16 17 18 18 18 18 18 18 19 18 17 16 15 14 14 14 14 15 15 16 16 17 17 18 18 19 19 20 21 21 22 23 24 25 27 28 28 29 29 29 29 28
21 20 19 18 17 17 16 16 15 15 16 16 16 15 14 14 13 12 12 12 12 12 13 13 14 15 16 17 17 18 18 18 18 19 19 19 19 18 16 15 15 14 14 15 15 16 17 17 18 18 19 19 19 20 20 21 21 22 24 25 26 27 28 28 29 29 29 28 26
21 19 19 18 18 17 16 16 16 16 16 16 16 15 15 14 14 13 13 13 13 12 13 14 15 16 17 17 17 18 18 18 19 19 20 20 19 18 17 15 15 14 15 15 16 17 18 18 19 19 19 19 20 20 20 21 22 23 25 26 27 27 28 28 28 28 28 27 25
20 19 19 19 18 18 17 17 17 17 17 17 16 16 15 15 15 15 15 14 13 13 13 15 16 16 17 17 18 18 18 18 19 20 20 20 19 18 17 16 15 15 15 16 17 18 18 19 19 20 20 20 20 20 21 22 23 24 26 26 27 27 27 28 28 28 27 25 23
20 20 19 20 19 18 17 17 18 18 18 17 16 16 16 16 16 16 16 14 13 13 14 16 17 17 17 18 18 18 18 19 20 20 20 19 19 18 17 17 16 16 16 17 18 18 19 19 20 20 20 20 20 21 21 23 24 25 26 26 27 27 27 28 28 27 25 23 22
21 20 21 21 20 19 18 19 19 19 18 18 17 17 17 17 18 17 16 14 13 14 15 17 17 18 18 18 18 18 19 20 20 21 20 19 18 17 17 17 17 17 18 18 18 19 19 19 20 20 20 20 20 21 22 23 24 25 26 26 26 27 27 28 27 26 23 21 20
21 22 22 22 21 20 20 21 20 20 19 18 18 17 18 18 18 17 15 14 14 15 16 18 18 18 18 18 18 19 20 21 21 21 20 19 18 17 17 18 18 18 19 19 19 19 19 19 20 20 20 20 21 21 22 23 25 25 25 25 26 27 28 28 26 24 22 20 19
23 23 23 23 22 22 22 22 21 21 20 19 18 18 18 18 17 15 14 14 15 16 18 18 18 18 18 18 19 20 21 21 21 20 19 18 18 18 18 18 19 19 20 20 20 19 20 20 20 20 20 21 21 22 23 24 25 25 25 25 26 27 27 26 25 22 20 19 19
24 24 24 23 23 23 23 23 22 21 20 19 18 18 18 17 15 14 14 15 17 18 19 19 18 18 18 19 20 21 22 21 21 20 19 18 18 18 18 19 20 20 20 20 20 20 20 20 21 21 21 21 21 22 23 24 25 25 25 25 26 27 26 24 22 20 19 19 19
25 25 24 24 24 24 24 23 22 20 19 18 18 17 16 15 14 14 15 17 18 19 20 19 18 18 19 20 21 22 22 21 20 19 18 18 18 19 19 20 20 21 21 20 20 20 21 21 21 22 22 22 22 22 23 24 24 24 25 25 26 25 24 22 20 19 19 19 19
26 26 25 25 24 24 23 22 21 19 18 17 17 16 15 14 14 15 16 18 19 20 20 19 19 19 20 21 22 22 22 21 20 19 18 18 19 19 20 21 21 21 21 21 21 21 21 22 22 22 22 23 23 23 24 24 24 24 24 25 25 24 22 20 19 18 18 19 19
26 26 25 25 25 24 22 20 19 17 17 16 15 14 14 14 15 16 17 19 20 20 20 19 19 20 22 22 23 22 22 21 20 19 19 19 19 20 21 22 22 22 22 22 22 22 22 22 23 23 23 23 23 23 23 23 23 23 24 24 23 22 20 19 18 18 18 19 19
27 26 26 25 24 22 20 18 17 16 15 14 14 14 14 15 16 17 18 19 20 20 20 20 21 22 22 23 23 22 22 21 20 20 20 19 20 21 22 22 23 23 23 22 23 23 23 23 24 24 24 24 24 23 23 23 23 23 23 23 22 20 19 18 18 18 18 18 18
27 26 26 24 22 20 18 16 15 14 14 13 13 14 15 16 17 18 19 20 20 20 20 21 22 23 23 23 23 23 22 21 21 20 20 20 21 21 22 23 23 24 24 24 24 24 24 24 24 24 24 24 24 23 23 23 22 22 22 21 20 19 18 17 17 18 18 18 18
26 26 25 23 20 18 16 14 14 13 13 13 13 14 15 16 17 18 19 19 19 20 21 22 23 23 24 24 23 23 22 22 21 21 20 21 21 22 23 23 24 24 24 24 24 24 24 24 24 24 24 24 23 23 23 22 22 21 20 19 18 17 17 17 17 17 18 18 18
26 25 23 20 18 16 14 13 13 12 13 13 13 14 15 16 17 18 19 19 20 21 23 24 24 24 24 24 24 23 23 22 22 21 21 21 21 22 23 23 23 24 24 24 24 24 24 24 24 23 23 23 23 22 22 22 21 20 19 18 17 17 17 17 17 17 17 18 18
25 23 21 18 16 14 13 12 12 13 13 13 13 14 15 16 18 19 20 21 22 23 24 24 24 24 24 24 24 23 23 22 22 22 21 21 22 22 22 23 23 23 24 24 24 24 24 23 23 23 23 23 22 22 22 21 20 19 18 17 17 16 17 17 17 17 17 17 18
23 21 19 16 14 13 12 13 14 14 14 14 14 15 16 18 19 21 22 23 24 25 25 25 24 24 23 23 23 23 23 22 22 22 22 21 21 22 22 22 23 23 23 24 24 23 23 23 23 23 23 22 22 21 21 21 20 18 17 17 16 16 17 17 17 17 17 17 17
20 18 16 15 13 13 14 14 15 15 15 14 14 15 17 19 21 22 24 25 25 26 25 24 23 23 23 23 23 22 22 22 22 22 22 22 22 22 22 22 23 23 23 23 23 23 23 23 23 23 22 22 21 21 21 20 19 18 17 17 17 17 17 18 18 18 17 17 17
17 16 15 15 15 16 16 16 16 16 15 14 14 16 18 20 22 24 25 25 25 25 24 23 23 23 23 22 22 22 22 22 22 22 22 22 22 22 22 23 23 23 23 23 23 23 23 23 23 23 22 21 21 21 20 20 19 18 17 17 17 17 18 18 18 18 17 17 17
17 17 17 18 19 18 17 17 16 15 14 13 15 17 20 22 23 25 25 25 24 24 23 23 23 23 23 22 22 22 22 22 22 22 22 22 22 22 22 23 23 23 23 23 23 23 24 23 23 22 21 21 20 20 20 20 19 18 18 17 17 18 18 18 18 18 17 17 17
Wind_Direction
221 225 230 233 236 238 238 238 239 242 244 245 244 245 246 246 245 246 249 252 255 259 262 264 267 269 273 276 279 281 283 285 289 294 298 299 296 291 288 287 288 292 296 299 301 303 305 306 307 308 309 308 307 304 301 297 296 295 296 296 298 300 303 304 306 308 311 313 314
225 228 231 233 235 236 237 238 239 240 241 243 244 246 246 246 246 247 250 254 257 260 263 266 268 271 273 276 278 280 283 285 289 294 299 300 299 295 291 289 290 294 297 301 303 305 306 307 308 309 309 308 305 301 297 294 293 294 295 297 299 302 304 306 308 309 311 312 313
228 230 232 233 234 235 237 239 239 239 239 241 243 245 245 245 246 248 252 257 260 263 266 268 270 271 273 275 277 279 282 285 290 294 298 301 301 299 296 294 295 297 300 303 305 306 306 306 307 307 307 305 302 298 295 293 294 296 297 300 302 304 306 307 308 309 309 309 309
229 231 232 232 233 235 237 239 241 241 242 242 244 244 245 245 246 249 254 259 263 267 269 271 272 273 274 276 277 279 282 286 290 294 298 301 302 301 300 299 300 301 304 306 307 307 306 305 305 306 305 302 300 297 295 295 296 299 300 302 304 306 306 307 307 307 307 306 306
229 230 231 232 233 236 238 240 243 244 244 245 244 243 243 244 246 249 254 259 265 271 274 276 276 276 277 278 278 280 283 286 290 294 298 300 302 302 302 302 303 304 307 309 309 307 304 302 302 302 301 301 299 297 295 295 297 298 300 302 303 304 305 305 305 305 305 305 305
230 231 232 234 237 239 242 244 245 245 244 244 242 242 242 243 244 247 253 262 270 276 278 280 281 281 281 281 281 282 284 287 290 294 297 299 300 301 301 302 303 305 308 310 310 306 301 298 297 298 298 298 296 293 292 291 293 295 297 298 299 301 302 303 303 304 305 305 306
232 234 236 239 242 245 246 247 246 244 242 241 240 239 240 241 242 247 255 266 274 279 281 281 282 283 284 285 286 286 287 289 291 293 295 297 298 300 301 301 303 305 307 309 308 304 298 295 294 294 293 292 290 288 287 288 289 291 293 294 296 297 299 301 302 305 307 309 311
232 236 240 243 245 247 247 247 244 242 239 238 237 237 238 238 241 248 258 267 275 280 282 282 282 285 289 292 294 293 292 291 291 292 293 295 297 298 299 300 301 303 304 305 303 300 295 293 291 290 288 287 286 285 285 286 288 289 291 292 294 296 299 302 305 308 311 313 314
231 236 241 244 245 246 246 245 243 240 238 237 236 235 235 236 242 249 257 267 276 283 284 283 284 288 294 299 301 300 297 294 292 292 292 294 295 295 296 297 298 299 300 299 297 293 291 290 288 286 285 285 284 284 285 286 287 289 290 292 295 298 301 305 309 311 313 314 315
232 237 241 243 244 244 243 242 240 238 236 235 234 233 234 238 243 250 257 268 278 285 286 284 286 290 297 304 306 306 303 298 295 292 291 292 292 292 293 294 295 296 295 293 289 286 286 286 285 284 284 284 284 284 285 286 288 289 291 294 297 300 304 308 311 312 313 313 314
234 238 240 241 242 242 241 238 236 233 231 230 230 232 235 240 245 252 260 271 280 284 285 285 288 292 300 306 309 309 307 302 298 294 291 290 290 290 291 292 293 293 291 287 283 281 282 284 283 283 283 283 284 285 286 287 288 290 292 296 299 303 307 309 311 311 312 313 314
234 237 238 239 240 239 238 235 231 227 225 225 228 232 237 243 249 257 265 274 279 282 284 287 290 295 301 307 309 309 306 303 300 296 293 291 290 290 291 292 292 290 286 282 278 279 281 283 283 283 283 284 284 285 286 287 289 291 294 297 301 305 307 309 309 310 311 313 315
233 235 236 237 237 236 234 230 227 224 222 224 228 234 239 246 253 260 268 274 278 280 282 286 291 296 302 305 305 304 303 303 301 299 296 293 292 291 291 291 290 286 281 276 275 278 281 283 284 284 284 285 285 285 286 287 289 292 295 299 302 305 306 308 309 310 312 314 316
231 233 234 235 235 234 232 228 225 223 224 226 232 237 241 248 254 260 266 272 275 277 279 284 290 296 300 300 300 300 301 302 303 302 299 296 294 292 292 291 289 284 278 273 273 276 280 282 283 284 284 285 285 286 286 288 291 293 296 299 302 304 305 307 308 310 312 315 317
229 230 232 233 234 234 231 226 223 223 224 226 232 236 239 244 252 259 265 269 272 274 278 282 288 292 295 295 297 298 301 303 304 304 303 300 298 296 296 295 294 289 282 276 274 275 277 280 282 283 284 285 285 286 287 289 291 294 297 299 302 303 305 306 308 311 314 316 318
227 228 230 232 233 234 231 223 219 219 220 222 226 229 233 238 249 258 264 267 269 271 275 280 284 287 290 292 295 299 301 303 305 306 306 305 304 303 302 302 302 298 292 285 280 277 276 277 279 282 283 285 285 286 287 289 292 295 297 300 302 303 305 306 309 312 315 317 318
226 228 230 232 232 233 229 222 217 216 217 220 222 224 229 237 249 258 263 264 265 267 271 276 280 283 287 291 296 300 302 303 305 307 308 308 308 308 307 307 306 304 299 293 287 281 278 277 278 280 282 284 285 287 288 291 293 296 299 301 302 303 305 307 310 313 316 317 318
227 229 231 230 230 227 223 219 217 216 217 219 221 224 229 239 251 259 261 260 260 263 268 273 278 282 286 291 296 299 301 302 304 306 307 308 309 309 309 308 306 304 300 296 291 285 280 278 279 280 282 284 286 288 290 293 296 298 300 301 302 303 305 308 311 314 316 317 317
228 228 228 228 226 224 220 216 215 215 217 220 222 226 232 243 253 258 258 257 259 263 268 273 278 282 287 291 294 298 300 301 302 303 305 306 307 308 307 307 304 301 298 295 292 287 283 281 280 281 284 286 288 290 293 295 297 298 300 300 302 304 306 309 312 314 315 316 316
227 226 226 226 224 221 218 214 213 215 219 222 224 229 236 247 254 257 257 258 262 267 271 274 277 281 285 289 293 296 299 300 300 300 301 303 304 304 305 304 303 300 297 294 291 288 285 283 282 283 285 288 290 292 294 296 297 297 298 299 301 304 307 310 312 314 315 315 315
225 225 225 225 223 219 214 211 214 218 223 227 229 233 240 249 254 257 259 263 268 270 272 274 276 279 282 286 291 295 297 299 298 297 297 299 300 301 302 302 301 299 296 292 289 286 283 283 283 284 286 289 291 292 294 295 295 296 297 299 302 304 307 310 312 313 314 314 314
223 223 223 223 220 215 211 211 215 221 225 229 232 237 244 250 254 259 263 268 269 269 270 271 272 275 278 284 289 292 294 294 294 294 294 295 296 297 298 299 299 297 294 289 285 282 281 281 282 284 286 288 290 291 292 292 293 294 296 299 302 305 307 309 311 313 314 313 312
220 221 220 218 215 212 212 217 220 223 226 229 234 240 245 250 255 260 265 268 268 267 267 266 267 270 275 281 286 289 290 290 290 291 292 293 294 294 294 295 296 294 291 286 282 279 278 279 280 283 285 287 288 288 289 290 292 294 297 300 302 305 307 309 311 312 313 312 310
218 217 215 212 209 212 219 222 225 226 227 230 236 242 247 252 257 262 265 267 267 264 262 261 263 267 272 278 283 285 286 287 288 290 291 292 292 291 291 292 293 291 288 285 282 279 279 279 280 281 283 284 285 286 288 290 293 296 299 301 303 305 307 308 310 311 312 310 309
217 214 209 206 205 210 218 223 225 226 228 233 238 244 249 254 259 263 266 266 263 259 256 257 260 266 273 279 282 284 285 287 289 290 291 291 290 289 289 289 290 289 287 284 282 280 279 279 279 279 280 282 283 286 289 292 295 298 300 302 303 305 307 309 310 311 310 309 307
214 208 204 202 205 211 218 222 223 226 230 236 242 248 252 257 262 264 264 261 256 253 253 256 261 268 275 280 282 284 286 289 291 292 292 291 289 288 287 287 287 287 286 284 282 281 279 278 277 278 279 281 283 287 291 295 298 300 302 303 304 305 307 309 310 310 309 307 306
209 204 202 203 208 213 217 220 223 226 233 240 246 252 257 261 263 263 259 254 251 251 253 257 263 270 276 280 283 286 289 292 293 293 293 290 288 285 284 284 285 285 285 284 282 280 278 277 276 277 278 281 284 288 294 299 302 303 303 304 304 306 308 309 309 309 307 306 306
204 202 202 205 210 215 218 220 223 229 237 246 253 257 261 263 262 259 253 249 249 251 254 258 264 270 276 280 284 288 291 293 294 293 291 288 285 283 282 282 283 283 283 282 281 279 277 276 276 277 278 281 285 292 299 304 305 306 305 304 305 307 308 309 308 307 306 306 306
203 202 204 208 213 216 219 222 227 235 244 252 257 261 263 263 259 254 250 248 248 250 254 259 264 270 276 281 287 290 292 293 293 292 289 286 283 281 280 280 281 281 282 281 279 277 276 275 276 277 279 282 288 296 304 308 309 308 306 306 307 308 309 308 307 306 305 306 306
203 204 207 211 215 218 221 226 233 242 250 256 260 263 263 261 257 252 249 248 248 251 254 259 264 271 278 285 289 291 292 292 292 290 288 284 281 280 279 279 279 279 279 279 277 276 275 275 275 277 280 284 291 300 307 311 311 309 308 307 308 309 308 307 305 305 305 306 307
204 206 210 214 217 221 225 232 240 248 255 259 262 264 263 259 256 252 250 249 250 252 255 259 266 275 282 287 290 291 291 291 290 288 286 283 281 279 278 278 278 278 278 277 276 276 275 275 276 278 281 285 293 302 308 312 311 310 309 308 309 309 308 306 304 304 305 306 308
206 209 213 216 220 225 231 238 245 252 257 260 262 263 260 257 255 253 252 251 251 253 256 263 272 280 285 289 290 290 289 289 288 286 284 282 279 278 277 277 277 278 277 277 276 276 276 276 277 279 282 287 294 302 308 311 312 310 309 309 309 309 307 305 304 304 305 307 309
209 212 215 219 223 229 236 243 249 254 257 258 260 260 258 256 254 253 252 251 252 255 262 270 278 284 287 288 289 288 287 286 286 285 283 280 278 276 276 276 277 277 277 276 276 276 276 277 278 280 283 287 294 302 308 311 311 310 309 309 309 309 307 305 304 305 306 308 309
211 214 218 222 227 234 241 246 251 253 254 254 255 256 255 255 253 252 251 251 254 261 269 277 283 286 287 288 287 286 285 284 283 282 281 279 276 275 274 275 276 277 277 276 275 275 276 277 279 281 284 288 294 301 307 310 310 309 308 309 309 308 307 306 306 306 307 308 309
213 216 220 225 232 238 243 247 249 250 250 251 252 252 252 252 252 251 251 254 260 268 276 281 284 286 286 286 285 284 283 282 281 280 279 277 275 274 274 274 275 276 276 275 274 274 274 276 278 281 284 288 294 301 306 309 309 308 307 307 308 309 309 309 308 308 308 308 308
215 218 223 230 235 240 244 246 246 246 247 249 249 249 249 249 250 251 254 260 267 274 279 282 284 284 284 283 282 281 281 282 281 280 278 276 275 274 274 274 275 275 274 273 273 273 274 275 278 281 284 289 295 301 306 308 307 306 305 306 308 311 313 312 311 310 308 308 307
217 221 227 233 238 242 242 241 241 244 247 247 244 243 244 246 248 252 258 265 272 277 280 282 283 282 281 281 280 280 281 281 281 279 277 275 274 274 274 273 273 273 273 273 273 273 274 276 279 282 286 290 295 301 305 307 306 305 304 305 309 313 315 316 314 312 310 308 308
220 225 231 237 240 238 234 233 240 248 251 246 240 239 242 245 250 255 262 269 275 279 281 281 281 280 279 279 279 280 280 280 279 277 276 274 273 273 274 273 273 272 272 273 273 274 275 278 281 284 286 290 296 301 304 306 305 304 303 304 308 313 316 318 317 315 312 310 309
223 229 234 236 231 225 225 235 250 258 255 245 240 242 246 251 256 262 268 274 278 280 281 280 278 278 278 278 279 279 278 277 276 275 274 274 274 274 274 275 275 274 274 273 274 274 276 279 281 284 286 291 296 301 304 305 305 304 302 304 307 311 315 317 318 317 315 313 312
227 230 230 226 220 222 232 250 263 264 255 245 245 249 255 260 265 271 276 279 281 281 280 278 277 277 277 278 278 277 276 275 274 274 274 274 274 275 276 276 276 275 274 273 274 275 277 279 281 283 286 291 296 301 304 305 305 303 302 303 305 308 312 315 317 317 316 314 314
226 225 222 220 222 231 246 263 268 264 255 249 253 258 263 268 273 278 281 282 282 280 279 277 276 276 277 277 277 276 275 274 274 273 274 274 275 275 276 276 276 274 273 272 273 275 277 278 280 283 286 291 296 301 304 305 304 303 302 302 303 305 308 312 315 317 316 315 315
Height
1549 1549 1549 1550 1550 1550 1550 1550 1551 1551 1551 1551 1551 1551 1551 1551 1551 1550 1550 1550 1550 1550 1549 1549 1549 1549 1549 1548 1548 1548 1547 1547 1546 1546 1545 1545 1544 1544 1543 1542 1542 1541 1540 1540 1539 1539 1539 1538 1538 1538 1537 1537 1536 1536 1535 1535 1534 1534 1534 1533 1532 1532 1531 1530 1530 1529 1529 1529 1529
1548 1549 1549 1549 1549 1549 1549 1549 1549 1550 1550 1550 1550 1550 1550 1550 1550 1549 1549 1549 1549 1549 1549 1549 1549 1549 1548 1548 1548 1547 1547 1546 1546 1545 1545 1544 1544 1543 1543 1542 1541 1541 1540 1540 1539 1539 1538 1538 1537 1537 1537 1536 1536 1535 1534 1534 1534 1533 1533 1532 1532 1531 1531 1530 1529 1529 1529 1528 1528
1548 1548 1548 1548 1548 1548 1548 1548 1549 1549 1549 1549 1549 1549 1549 1549 1549 1549 1549 1549 1549 1548 1548 1548 1548 1548 1548 1547 1547 1547 1546 1546 1545 1545 1544 1544 1543 1543 1542 1542 1541 1541 1540 1539 1539 1538 1538 1537 1537 1536 1536 1535 1535 1534 1534 1533 1533 1533 1532 1532 1531 1530 1530 1529 1529 1529 1528 1528 1527
1547 1547 1548 1548 1548 1548 1547 1548 1548 1548 1548 1548 1548 1548 1548 1548 1548 1548 1548 1548 1548 1548 1548 1547 1547 1547 1547 1547 1547 1546 1546 1545 1545 1544 1544 1543 1543 1542 1542 1541 1541 1540 1540 1539 1539 1538 1537 1537 1536 1536 1535 1534 1534 1534 1533 1533 1532 1532 1531 1531 1530 1529 1529 1529 1528 1528 1527 1527 1526
1547 1547 1547 1547 1547 1547 1547 1547 1547 1547 1547 1547 1547 1548 1548 1548 1548 1548 1548 1548 1547 1547 1547 1547 1546 1546 1546 1546 1546 1545 1545 1544 1544 1544 1543 1543 1542 1541 1541 1540 1540 1540 1539 1539 1538 1538 1537 1536 1535 1535 1534 1534 1534 1533 1533 1532 1531 1531 1530 1530 1529 1529 1528 1528 1527 1527 1526 1526 1526
1546 1546 1546 1546 1546 1546 1546 1546 1546 1546 1546 1546 1547 1547 1547 1547 1547 1547 1547 1547 1546 1546 1546 1546 1546 1545 1545 1545 1544 1544 1544 1544 1543 1543 1542 1542 1541 1541 1540 1540 1539 1539 1539 1538 1538 1537 1536 1536 1535 1534 1534 1534 1533 1533 1532 1531 1531 1530 1530 1529 1529 1528 1528 1527 1527 1526 1526 1525 1525
1545 1545 1545 1545 1545 1545 1545 1545 1545 1545 1546 1546 1546 1546 1546 1547 1547 1546 1546 1546 1546 1545 1545 1545 1545 1545 1544 1544 1544 1543 1543 1543 1542 1542 1541 1541 1540 1540 1539 1539 1539 1538 1538 1538 1537 1537 1536 1535 1535 1534 1534 1533 1533 1532 1531 1531 1530 1530 1529 1529 1528 1528 1527 1526 1526 1525 1525 1524 1524
1544 1544 1544 1544 1544 1544 1544 1544 1544 1544 1545 1545 1545 1545 1546 1546 1546 1546 1545 1545 1545 1545 1545 1544 1544 1544 1543 1543 1543 1542 1542 1541 1541 1541 1540 1540 1539 1539 1539 1538 1538 1538 1537 1537 1536 1536 1535 1535 1534 1534 1533 1533 1532 1531 1531 1530 1530 1529 1529 1528 1527 1527 1526 1526 1525 1524 1524 1524 1523
1543 1543 1543 1543 1543 1543 1543 1543 1543 1544 1544 1544 1544 1545 1545 1545 1545 1545 1545 1545 1544 1544 1544 1544 1544 1543 1543 1542 1542 1541 1541 1540 1540 1540 1539 1539 1539 1538 1538 1538 1537 1537 1537 1536 1536 1535 1535 1534 1534 1533 1533 1532 1531 1531 1530 1529 1529 1528 1527 1527 1526 1526 1525 1525 1524 1524 1523 1522 1522
1541 1542 1542 1542 1542 1542 1542 1542 1542 1542 1543 1543 1543 1544 1544 1544 1544 1544 1544 1544 1544 1544 1543 1543 1543 1542 1542 1541 1541 1540 1540 1539 1539 1539 1539 1538 1538 1538 1537 1537 1537 1536 1536 1535 1535 1534 1534 1534 1533 1533 1532 1531 1531 1530 1529 1529 1528 1527 1526 1526 1525 1525 1524 1524 1524 1523 1522 1521 1520
1540 1540 1540 1540 1540 1540 1540 1541 1541 1541 1541 1542 1542 1542 1543 1543 1543 1543 1544 1543 1543 1543 1542 1542 1542 1541 1541 1541 1540 1539 1539 1539 1538 1538 1538 1538 1537 1537 1537 1536 1536 1535 1535 1535 1534 1534 1533 1533 1532 1532 1531 1530 1530 1529 1528 1528 1527 1526 1525 1525 1524 1524 1523 1523 1522 1522 1521 1520 1519
1539 1539 1539 1539 1539 1539 1539 1539 1539 1540 1540 1540 1541 1541 1541 1542 1542 1542 1542 1542 1542 1542 1541 1541 1541 1541 1540 1540 1539 1539 1539 1538 1538 1537 1537 1537 1536 1536 1536 1535 1535 1534 1534 1534 1533 1533 1532 1532 1531 1531 1530 1529 1529 1528 1527 1527 1526 1525 1524 1524 1524 1523 1522 1522 1521 1520 1519 1519 1518
1537 1537 1537 1537 1538 1538 1538 1538 1539 1539 1539 1539 1539 1540 1540 1540 1540 1541 1541 1541 1541 1541 1540 1540 1540 1540 1540 1539 1539 1539 1538 1537 1537 1536 1536 1536 1535 1535 1535 1534 1534 1534 1533 1533 1532 1532 1531 1531 1530 1529 1529 1528 1528 1527 1526 1526 1525 1524 1524 1523 1523 1522 1521 1520 1520 1519 1518 1517 1516
1535 1536 1536 1536 1536 1536 1537 1537 1537 1537 1538 1538 1538 1538 1539 1539 1539 1539 1540 1540 1540 1540 1540 1539 1539 1539 1539 1539 1538 1538 1537 1537 1536 1536 1535 1535 1534 1534 1534 1533 1533 1533 1532 1532 1531 1531 1530 1530 1529 1529 1528 1527 1527 1526 1525 1525 1524 1523 1523 1522 1521 1521 1520 1519 1519 1518 1517 1516 1515
1534 1534 1534 1534 1534 1535 1535 1535 1535 1536 1536 1537 1537 1537 1537 1538 1538 1538 1539 1539 1539 1539 1539 1539 1539 1539 1538 1538 1537 1537 1537 1536 1535 1535 1534 1534 1533 1533 1533 1532 1532 1532 1531 1531 1530 1530 1529 1529 1528 1527 1527 1526 1526 1525 1524 1524 1523 1522 1522 1521 1521 1520 1519 1519 1518 1517 1516 1514 1513
1532 1533 1533 1533 1533 1533 1534 1534 1534 1534 1535 1535 1536 1536 1536 1537 1537 1537 1538 1538 1538 1538 1538 1538 1538 1537 1537 1536 1536 1536 1536 1535 1535 1534 1534 1533 1532 1532 1531 1531 1531 1530 1530 1529 1529 1529 1528 1528 1527 1526 1526 1525 1525 1524 1523 1523 1522 1522 1521 1520 1520 1519 1518 1517 1517 1515 1514 1513 1512
1531 1531 1531 1532 1532 1532 1532 1533 1533 1533 1534 1534 1535 1535 1536 1536 1536 1536 1537 1537 1537 1537 1537 1537 1537 1536 1536 1535 1535 1535 1535 1534 1534 1533 1533 1532 1531 1530 1530 1530 1529 1529 1529 1528 1528 1527 1527 1526 1526 1525 1525 1524 1524 1523 1522 1522 1521 1521 1520 1519 1519 1518 1517 1516 1515 1514 1513 1512 1511
1529 1530 1530 1530 1531 1531 1531 1532 1532 1532 1533 1534 1534 1534 1535 1535 1535 1535 1535 1536 1536 1536 1536 1536 1535 1535 1535 1534 1534 1534 1534 1533 1533 1532 1532 1531 1530 1530 1529 1529 1529 1528 1528 1527 1527 1526 1526 1525 1525 1524 1524 1523 1523 1522 1522 1521 1520 1520 1519 1519 1518 1517 1516 1515 1514 1514 1512 1511 1510
1528 1528 1529 1529 1529 1530 1530 1531 1531 1532 1532 1533 1533 1533 1534 1534 1534 1534 1534 1534 1534 1535 1535 1534 1534 1534 1534 1533 1533 1533 1532 1532 1532 1531 1531 1530 1529 1529 1528 1528 1527 1527 1526 1526 1526 1525 1525 1524 1524 1523 1523 1522 1522 1521 1521 1520 1519 1519 1518 1518 1517 1516 1515 1514 1514 1512 1511 1510 1509
1526 1527 1527 1528 1528 1529 1529 1529 1530 1530 1531 1531 1532 1532 1533 1533 1533 1533 1533 1533 1533 1533 1533 1533 1533 1532 1532 1532 1532 1531 1531 1531 1530 1530 1529 1529 1529 1528 1527 1527 1526 1526 1525 1525 1525 1524 1524 1523 1523 1522 1522 1522 1521 1520 1519 1519 1519 1518 1517 1517 1516 1515 1514 1513 1512 1511 1510 1509 1508
1525 1525 1526 1526 1527 1527 1528 1528 1529 1529 1530 1530 1531 1531 1531 1531 1531 1531 1531 1532 1532 1532 1531 1531 1531 1531 1531 1530 1530 1530 1530 1529 1529 1529 1529 1528 1528 1527 1526 1526 1525 1525 1524 1524 1524 1523 1523 1522 1522 1521 1521 1520 1520 1519 1519 1518 1518 1517 1516 1515 1515 1514 1513 1512 1511 1510 1509 1508 1507
1523 1524 1524 1525 1525 1526 1527 1527 1528 1528 1529 1529 1529 1529 1529 1530 1530 1530 1530 1530 1530 1530 1529 1529 1529 1529 1529 1529 1529 1529 1529 1528 1528 1528 1527 1527 1526 1526 1525 1525 1524 1524 1523 1523 1523 1522 1522 1521 1521 1520 1520 1519 1519 1518 1518 1517 1516 1516 1515 1514 1514 1513 1512 1511 1510 1509 1508 1507 1506
1522 1523 1523 1524 1524 1525 1525 1526 1527 1527 1527 1528 1528 1528 1528 1528 1528 1529 1529 1529 1529 1528 1528 1528 1528 1528 1528 1528 1528 1528 1527 1527 1527 1526 1526 1525 1525 1524 1524 1524 1523 1523 1522 1522 1521 1521 1520 1520 1519 1519 1519 1518 1518 1517 1517 1516 1515 1514 1514 1513 1512 1511 1511 1510 1509 1508 1507 1505 1504
1521 1522 1522 1522 1523 1524 1524 1525 1525 1525 1526 1526 1526 1526 1526 1527 1527 1527 1527 1527 1527 1527 1527 1527 1527 1527 1527 1527 1526 1526 1526 1526 1525 1525 1525 1524 1524 1523 1523 1522 1522 1521 1521 1520 1520 1520 1519 1519 1519 1518 1518 1517 1517 1516 1516 1515 1514 1514 1513 1512 1511 1510 1509 1509 1508 1507 1505 1504 1503
1520 1520 1520 1521 1522 1522 1523 1524 1524 1524 1524 1525 1525 1525 1525 1525 1525 1525 1525 1525 1525 1525 1525 1525 1526 1526 1525 1525 1525 1525 1525 1524 1524 1524 1523 1523 1522 1522 1521 1521 1520 1520 1519 1519 1519 1519 1518 1518 1518 1517 1517 1516 1516 1515 1514 1514 1513 1512 1511 1510 1509 1509 1508 1507 1506 1505 1504 1503 1502
1518 1519 1519 1519 1520 1521 1522 1522 1522 1523 1523 1523 1524 1524 1524 1524 1524 1524 1524 1524 1524 1524 1524 1524 1524 1524 1524 1524 1524 1524 1523 1523 1523 1522 1522 1521 1521 1520 1520 1519 1519 1519 1518 1518 1518 1517 1517 1517 1516 1516 1515 1515 1514 1514 1513 1513 1512 1511 1510 1509 1508 1507 1506 1505 1504 1504 1503 1502 1501
1517 1517 1518 1519 1519 1520 1520 1521 1521 1522 1522 1522 1522 1522 1522 1522 1522 1522 1522 1522 1522 1523 1523 1523 1523 1523 1523 1523 1523 1522 1522 1522 1521 1521 1520 1520 1519 1519 1519 1518 1518 1517 1517 1516 1516 1516 1516 1515 1515 1515 1514 1514 1513 1513 1512 1511 1510 1510 1509 1508 1507 1506 1505 1504 1503 1502 1501 1500 1499
1515 1516 1517 1518 1518 1519 1519 1520 1520 1520 1520 1521 1521 1521 1521 1521 1521 1521 1521 1521 1521 1521 1522 1522 1522 1522 1522 1522 1521 1521 1521 1520 1520 1519 1519 1519 1518 1518 1517 1517 1516 1516 1515 1515 1515 1515 1514 1514 1514 1514 1513 1513 1512 1512 1511 1510 1509 1508 1507 1506 1505 1504 1503 1502 1501 1500 1499 1499 1498
1514 1515 1516 1517 1517 1518 1518 1519 1519 1519 1519 1520 1520 1520 1520 1520 1519 1519 1519 1520 1520 1520 1520 1521 1521 1521 1521 1520 1520 1520 1519 1519 1519 1518 1517 1517 1516 1516 1516 1515 1515 1514 1514 1514 1514 1513 1513 1513 1513 1512 1512 1511 1511 1510 1510 1509 1508 1507 1506 1505 1504 1503 1502 1501 1500 1499 1498 1497 1497
1513 1514 1515 1516 1517 1517 1518 1518 1518 1519 1519 1519 1519 1519 1519 1519 1519 1519 1519 1519 1519 1519 1519 1520 1520 1519 1519 1519 1519 1518 1518 1518 1517 1517 1516 1515 1515 1515 1514 1514 1514 1513 1513 1512 1512 1512 1512 1511 1511 1511 1510 1510 1509 1509 1508 1508 1507 1506 1505 1504 1503 1502 1500 1499 1499 1498 1497 1496 1495
1513 1514 1514 1515 1516 1516 1517 1517 1518 1518 1518 1518 1518 1518 1518 1518 1518 1518 1518 1518 1518 1519 1519 1519 1519 1518 1518 1518 1517 1517 1516 1516 1515 1515 1514 1514 1514 1513 1513 1513 1512 1512 1511 1511 1511 1511 1510 1510 1510 1509 1509 1509 1508 1508 1507 1506 1505 1504 1503 1502 1501 1500 1499 1499 1498 1497 1496 1495 1494
1512 1513 1514 1515 1515 1516 1516 1517 1517 1517 1517 1517 1517 1517 1517 1517 1517 1517 1517 1518 1518 1518 1518 1518 1517 1517 1517 1516 1516 1515 1515 1514 1514 1514 1513 1513 1512 1512 1511 1511 1511 1510 1510 1509 1509 1509 1509 1509 1509 1508 1508 1507 1507 1506 1505 1505 1504 1503 1502 1501 1500 1499 1498 1497 1496 1495 1495 1494 1493
1512 1513 1514 1514 1515 1515 1516 1516 1516 1516 1516 1516 1516 1516 1516 1516 1516 1516 1517 1517 1517 1517 1517 1516 1516 1515 1515 1514 1514 1514 1513 1513 1513 1512 1512 1511 1511 1510 1510 1509 1509 1509 1508 1508 1508 1508 1507 1507 1507 1507 1506 1506 1505 1505 1504 1504 1503 1502 1501 1499 1499 1498 1497 1496 1495 1494 1494 1493 1492
1512 1513 1513 1514 1514 1515 1515 1515 1515 1515 1515 1515 1515 1515 1515 1515 1515 1515 1516 1516 1516 1516 1515 1515 1514 1514 1514 1513 1513 1512 1512 1511 1511 1511 1510 1510 1509 1509 1508 1508 1507 1507 1507 1507 1506 1506 1506 1506 1505 1505 1505 1504 1504 1504 1503 1502 1501 1500 1499 1499 1498 1497 1496 1495 1494 1493 1493 1492 1491
1511 1512 1513 1513 1514 1514 1514 1514 1514 1514 1514 1514 1514 1514 1514 1514 1514 1514 1515 1515 1515 1514 1514 1514 1513 1512 1512 1511 1511 1511 1510 1510 1509 1509 1509 1509 1508 1507 1507 1506 1506 1505 1505 1505 1505 1504 1504 1504 1504 1504 1504 1503 1503 1502 1501 1501 1500 1499 1498 1497 1497 1496 1495 1494 1493 1492 1491 1490 1489
1511 1511 1512 1512 1512 1512 1513 1513 1513 1513 1513 1512 1512 1512 1513 1513 1514 1514 1514 1514 1513 1513 1512 1512 1511 1511 1510 1510 1509 1509 1509 1508 1508 1508 1507 1507 1506 1506 1505 1505 1504 1504 1504 1503 1503 1503 1503 1503 1503 1503 1502 1502 1501 1501 1500 1499 1499 1498 1497 1496 1495 1495 1494 1493 1492 1491 1490 1489 1489
1510 1510 1511 1511 1511 1511 1511 1511 1511 1511 1511 1511 1511 1511 1512 1512 1513 1513 1512 1512 1512 1511 1510 1510 1509 1509 1508 1508 1508 1507 1507 1507 1506 1506 1506 1505 1505 1504 1504 1503 1503 1503 1502 1502 1502 1502 1502 1501 1501 1501 1501 1500 1499 1499 1499 1498 1497 1496 1496 1495 1494 1494 1493 1492 1491 1490 1489 1489 1488
1509 1509 1509 1510 1510 1510 1510 1509 1509 1509 1509 1509 1510 1510 1511 1512 1512 1511 1511 1511 1510 1509 1509 1508 1508 1507 1507 1506 1506 1506 1505 1505 1505 1504 1504 1504 1503 1503 1502 1502 1501 1501 1501 1500 1500 1500 1500 1500 1500 1499 1499 1499 1498 1498 1497 1496 1496 1495 1494 1494 1493 1493 1492 1491 1490 1489 1489 1488 1487
1508 1508 1508 1508 1508 1508 1507 1507 1508 1508 1508 1508 1509 1510 1510 1510 1510 1510 1509 1509 1508 1508 1507 1506 1506 1505 1505 1505 1504 1504 1504 1504 1503 1503 1502 1502 1502 1501 1501 1500 1499 1499 1499 1499 1499 1499 1499 1499 1498 1498 1497 1497 1497 1496 1496 1495 1494 1494 1493 1493 1492 1491 1491 1490 1489 1488 1488 1487 1486
1507 1507 1507 1506 1506 1505 1505 1506 1507 1507 1507 1508 1508 1509 1509 1509 1509 1508 1508 1507 1506 1505 1505 1504 1504 1504 1504 1503 1503 1503 1502 1502 1502 1501 1501 1500 1500 1499 1499 1498 1498 1498 1498 1497 1497 1497 1497 1497 1497 1496 1496 1495 1495 1495 1494 1494 1493 1493 1492 1491 1491 1490 1489 1489 1488 1487 1486 1486 1485
1505 1505 1504 1504 1503 1504 1504 1506 1506 1506 1506 1507 1507 1508 1508 1507 1507 1506 1506 1505 1504 1504 1503 1503 1502 1502 1502 1502 1501 1501 1500 1500 1500 1499 1499 1499 1499 1498 1497 1497 1496 1496 1496 1496 1496 1495 1495 1495 1495 1494 1494 1494 1494 1493 1493 1492 1492 1491 1491 1490 1489 1489 1488 1488 1487 1486 1485 1485 1484